Location: Cheching
(60.0667°N, 164.2167°W)
Time: 01:00:05
(UTC+00:00)

DX 1 - Pass Details

Date: 28 January 2021
Orbit: 618 x 631 km, 98.5° (Epoch: 07 March)

Event Time Altitude Azimuth Distance (km) Brightness Sun altitude
Exits shadow 06:13:48 46° 176° (S) 843 ? -23.6°
Drops below altitude 10° 06:16:54 10° 191° (SSW) 1,986 ? -24.0°
Sets 06:19:05 0° 194° (SSW) 2,888 ? -24.2°
